DW2633 Weather Reports


time (UTC)temp
C
wind
direction
speed
KPH
gust
KPH
rain 1hr
cm
rain 24hr
cm
rain mn
cm
humidity
%
barometer
mb
20260905185542 21 49 11.3 0.0 0.00 0.00 0.00 70 1010.1
20260905185041 21 50 11.3 0.0 0.00 0.00 0.00 67 1010.1
20260905184541 21 61 9.7 0.0 0.00 0.00 0.00 67 1010.1
20260905184043 21 38 8.0 0.0 0.00 0.00 0.00 69 1010.0
20260905183541 21 67 8.0 0.0 0.00 0.00 0.00 71 1010.1
20260905183044 21 67 8.0 0.0 0.00 0.00 0.00 70 1010.1
20260905182540 21 50 8.0 0.0 0.00 0.00 0.00 69 1010.0
20260905182041 21 46 8.0 0.0 0.00 0.00 0.00 71 1010.0
20260905181541 21 55 8.0 0.0 0.00 0.00 0.00 69 1010.1
20260905181040 21 30 6.4 0.0 0.00 0.00 0.00 69 1010.0
20260905180540 22 26 6.4 0.0 0.00 0.00 0.00 68 1009.9
20260905180039 22 40 6.4 0.0 0.00 0.00 0.00 68 1009.9
20260905175539 21 355 4.8 0.0 0.00 0.00 0.00 70 1009.9
20260905175040 21 106 6.4 0.0 0.00 0.00 0.00 71 1009.8
20260905174537 21 120 8.0 0.0 0.00 0.00 0.00 73 1009.9
20260905174038 21 120 9.7 0.0 0.00 0.00 0.00 74 1010.0
20260905173541 20 123 11.3 0.0 0.00 0.00 0.00 75 1010.0
20260905173054 20 117 11.3 0.0 0.00 0.00 0.00 76 1010.0
20260905172537 20 116 11.3 0.0 0.00 0.00 0.00 76 1010.0
20260905172041 20 119 11.3 0.0 0.00 0.00 0.00 75 1010.0
20260905171539 21 106 11.3 0.0 0.00 0.00 0.00 73 1010.0
20260905171036 21 96 9.7 0.0 0.00 0.00 0.00 70 1009.9
20260905170536 21 69 4.8 0.0 0.00 0.00 0.00 69 1010.0
20260905170038 21 355 3.2 0.0 0.00 0.00 0.00 69 1009.9
20260905165536 21 355 4.8 0.0 0.00 0.00 0.00 70 1009.9
20260905165038 21 325 3.2 0.0 0.00 0.00 0.00 71 1009.9
20260905164535 21 340 3.2 0.0 0.00 0.00 0.00 69 1009.8
20260905164035 21 36 4.8 0.0 0.00 0.00 0.00 71 1009.9
20260905163534 21 103 4.8 0.0 0.00 0.00 0.00 71 1009.9
20260905163034 21 70 4.8 0.0 0.00 0.00 0.00 70 1009.8
20260905162534 21 55 4.8 0.0 0.00 0.00 0.00 70 1010.0
20260905162034 21 61 3.2 0.0 0.00 0.00 0.00 69 1010.0
20260905161535 21 348 3.2 0.0 0.00 0.00 0.00 70 1010.0
20260905161033 21 341 3.2 0.0 0.00 0.00 0.00 72 1010.0
20260905160533 21 360 1.6 0.0 0.00 0.00 0.00 71 1010.0
20260905160035 21 55 1.6 0.0 0.00 0.00 0.00 69 1010.0
20260905155531 21 9 3.2 0.0 0.00 0.00 0.00 71 1010.0
20260905155030 21 51 3.2 0.0 0.00 0.00 0.00 72 1010.0
20260905154534 21 346 3.2 0.0 0.00 0.00 0.00 71 1010.0
20260905154034 21 360 3.2 0.0 0.00 0.00 0.00 73 1010.1
20260905153529 21 360 3.2 0.0 0.00 0.00 0.00 71 1010.1
20260905153029 20 21 3.2 0.0 0.00 0.00 0.00 72 1010.0
20260905152529 20 24 3.2 0.0 0.00 0.00 0.00 71 1010.1
20260905152031 20 295 4.8 0.0 0.00 0.00 0.00 74 1010.0
20260905151528 20 292 6.4 0.0 0.00 0.00 0.00 74 1010.3
20260905151032 20 292 6.4 0.0 0.00 0.00 0.00 73 1010.2
20260905150526 20 302 6.4 0.0 0.00 0.00 0.00 73 1010.2
20260905150025 20 321 8.0 0.0 0.00 0.00 0.00 75 1010.3
20260905145525 20 327 8.0 0.0 0.00 0.00 0.00 75 1010.3
20260905145024 20 350 8.0 0.0 0.00 0.00 0.00 76 1010.3
20260905144524 20 355 6.4 0.0 0.00 0.00 0.00 74 1010.2
20260905144025 20 355 8.0 0.0 0.00 0.00 0.00 75 1010.2
20260905143523 20 336 8.0 0.0 0.00 0.00 0.00 76 1010.3
20260905143029 19 355 9.7 0.0 0.00 0.00 0.00 78 1010.3
20260905142523 19 5 9.7 0.0 0.00 0.00 0.00 76 1010.4
20260905142026 19 5 11.3 0.0 0.00 0.00 0.00 77 1010.4
20260905141528 19 5 11.3 0.0 0.00 0.00 0.00 77 1010.5
20260905141025 19 355 9.7 0.0 0.00 0.00 0.00 77 1010.5
20260905140524 19 347 9.7 0.0 0.00 0.00 0.00 76 1010.4
20260905140021 19 360 9.7 0.0 0.00 0.00 0.00 78 1010.4
20260905135521 18 360 9.7 0.0 0.00 0.00 0.00 78 1010.4
20260905135022 18 10 9.7 0.0 0.00 0.00 0.00 78 1010.5
20260905134521 18 355 8.0 0.0 0.00 0.00 0.00 78 1010.4
20260905134024 18 360 8.0 0.0 0.00 0.00 0.00 77 1010.5
20260905133521 18 342 8.0 0.0 0.00 0.00 0.00 79 1010.5
20260905133020 18 337 8.0 0.0 0.00 0.00 0.00 78 1010.7
20260905132520 18 355 8.0 0.0 0.00 0.00 0.00 78 1010.8
20260905132022 18 348 9.7 0.0 0.00 0.00 0.00 79 1010.9
20260905131524 18 355 9.7 0.0 0.00 0.00 0.00 78 1010.9
20260905131020 18 338 9.7 0.0 0.00 0.00 0.00 78 1010.8
20260905130520 18 355 9.7 0.0 0.00 0.00 0.00 79 1010.9
20260905130020 18 355 9.7 0.0 0.00 0.00 0.00 81 1010.8
20260905125519 18 355 11.3 0.0 0.00 0.00 0.00 81 1010.8
20260905125019 18 360 12.9 0.0 0.00 0.00 0.00 81 1010.8
20260905124529 18 344 12.9 0.0 0.00 0.00 0.00 81 1010.7
20260905124020 18 338 12.9 0.0 0.00 0.00 0.00 81 1010.6
20260905123517 18 342 12.9 0.0 0.00 0.00 0.00 82 1010.6
20260905123017 18 11 11.3 0.0 0.00 0.00 0.00 80 1010.6
20260905122517 18 355 9.7 0.0 0.00 0.00 0.00 80 1010.5
20260905122016 18 9 11.3 0.0 0.00 0.00 0.00 82 1010.5
20260905121516 18 45 11.3 0.0 0.00 0.00 0.00 82 1010.6
20260905121015 17 5 9.7 0.0 0.00 0.00 0.00 82 1010.5
20260905120514 17 21 8.0 0.0 0.00 0.00 0.00 81 1010.4
20260905120014 17 37 8.0 0.0 0.00 0.00 0.00 82 1010.2
20260905115515 17 355 8.0 0.0 0.00 0.00 0.00 81 1010.3
20260905115013 17 5 8.0 0.0 0.00 0.00 0.00 83 1010.2
20260905114512 17 44 8.0 0.0 0.00 0.00 0.00 82 1010.1
20260905114015 17 24 8.0 0.0 0.00 0.00 0.00 83 1009.9
20260905113512 17 21 6.4 0.0 0.00 0.00 0.00 83 1010.0
20260905113011 17 61 6.4 0.0 0.00 0.00 0.00 84 1009.9
20260905112512 16 36 4.8 0.0 0.00 0.00 0.00 83 1009.8
20260905112011 16 26 4.8 0.0 0.00 0.00 0.00 83 1009.8
20260905111512 16 88 4.8 0.0 0.00 0.00 0.00 84 1009.6
20260905111011 16 67 6.4 0.0 0.00 0.00 0.00 84 1009.6
20260905110516 17 59 6.4 0.0 0.00 0.00 0.00 84 1009.4
20260905110010 17 65 6.4 0.0 0.00 0.00 0.00 84 1009.4
20260905105510 16 58 6.4 0.0 0.00 0.00 0.00 83 1009.4
20260905105013 16 63 6.4 0.0 0.00 0.00 0.00 84 1009.4
20260905104510 16 60 6.4 0.0 0.00 0.00 0.00 85 1009.3
20260905104009 16 54 6.4 0.0 0.00 0.00 0.00 84 1009.4
20260905103510 16 74 6.4 0.0 0.00 0.00 0.00 84 1009.3
20260905103010 16 102 8.0 0.0 0.00 0.00 0.00 85 1009.3
20260905102509 16 27 9.7 0.0 0.00 0.00 0.00 85 1009.2
20260905102008 16 22 8.0 0.0 0.00 0.00 0.00 85 1009.1
20260905101516 16 55 6.4 0.0 0.00 0.00 0.00 85 1009.1
20260905101006 16 63 6.4 0.0 0.00 0.00 0.00 85 1009.0
20260905100506 16 57 6.4 0.0 0.00 0.00 0.00 85 1009.0
20260905100006 17 36 6.4 0.0 0.00 0.00 0.00 84 1008.9
20260905095504 17 59 6.4 0.0 0.00 0.00 0.00 84 1008.9
20260905095007 17 82 8.0 0.0 0.00 0.00 0.00 85 1009.0
20260905094504 17 32 8.0 0.0 0.00 0.00 0.00 86 1009.2
20260905094004 17 28 8.0 0.0 0.00 0.00 0.00 86 1009.1
20260905093503 17 28 9.7 0.0 0.00 0.00 0.00 86 1009.1
20260905093004 17 26 11.3 0.0 0.00 0.00 0.00 86 1008.9
20260905092503 17 5 12.9 0.0 0.00 0.00 0.00 86 1009.0
20260905092003 17 10 12.9 0.0 0.00 0.00 0.00 85 1008.9
20260905091503 17 18 12.9 0.0 0.00 0.00 0.00 86 1008.9
20260905091005 17 5 12.9 0.0 0.00 0.00 0.00 86 1008.9
20260905090500 17 26 11.3 0.0 0.00 0.00 0.00 86 1009.1
20260905090100 17 10 9.7 0.0 0.00 0.00 0.00 86 1009.1
20260905085602 17 19 9.7 0.0 0.00 0.00 0.00 86 1008.9
20260905085058 17 38 8.0 0.0 0.00 0.00 0.00 85 1009.0
20260905084600 17 57 8.0 0.0 0.00 0.00 0.00 85 1009.0
20260905084057 17 57 8.0 0.0 0.00 0.00 0.00 86 1009.1
20260905083555 17 50 8.0 0.0 0.00 0.00 0.00 85 1009.0
20260905083056 17 58 8.0 0.0 0.00 0.00 0.00 85 1009.0
20260905082555 17 38 8.0 0.0 0.00 0.00 0.00 86 1009.0
20260905082055 17 38 8.0 0.0 0.00 0.00 0.00 87 1009.1
20260905081554 17 46 6.4 0.0 0.00 0.00 0.00 85 1009.0
20260905081055 18 33 8.0 0.0 0.00 0.00 0.00 85 1009.1
20260905080555 18 48 8.0 0.0 0.00 0.00 0.00 84 1009.1
20260905075552 18 25 9.7 0.0 0.00 0.00 0.00 84 1009.1
20260905075051 18 17 11.3 0.0 0.00 0.00 0.00 84 1009.2
20260905074551 18 360 11.3 0.0 0.00 0.00 0.00 85 1009.2
20260905074051 18 21 11.3 0.0 0.00 0.00 0.00 85 1009.3
20260905073555 18 22 9.7 0.0 0.00 0.00 0.00 83 1009.3
20260905073050 18 5 8.0 0.0 0.00 0.00 0.00 83 1009.4
20260905072548 18 40 8.0 0.0 0.00 0.00 0.00 84 1009.2
20260905072049 17 48 6.4 0.0 0.00 0.00 0.00 84 1009.2
20260905071549 17 34 4.8 0.0 0.00 0.00 0.00 84 1009.3
20260905071049 18 59 3.2 0.0 0.00 0.00 0.00 84 1009.3
20260905070548 18 113 3.2 0.0 0.00 0.00 0.00 85 1009.3
20260905070051 18 87 3.2 0.0 0.00 0.00 0.00 85 1009.5
20260905065548 18 94 4.8 0.0 0.00 0.00 0.00 84 1009.4
20260905065048 18 116 6.4 0.0 0.00 0.00 0.00 84 1009.4
20260905064547 18 60 8.0 0.0 0.00 0.00 0.00 85 1009.6
20260905064048 18 10 8.0 0.0 0.00 0.00 0.00 85 1009.5
20260905063547 18 339 9.7 0.0 0.00 0.00 0.00 85 1009.4
20260905063055 18 336 9.7 0.0 0.00 0.00 0.00 86 1009.4
20260905062545 17 336 4.8 0.0 0.00 0.00 0.00 86 1009.4
20260905062044 17 336 1.6 0.0 0.00 0.00 0.00 86 1009.6
20260905061545 17 122 0.0 0.0 0.00 0.00 0.00 85 1009.7
20260905061044 17 122 1.6 0.0 0.00 0.00 0.00 84 1009.6
20260905060543 18 122 3.2 0.0 0.00 0.00 0.00 85 1009.5
20260905060042 18 119 4.8 0.0 0.00 0.00 0.00 85 1009.5
20260905055542 18 111 4.8 0.0 0.00 0.00 0.00 85 1009.6
20260905055040 18 101 4.8 0.0 0.00 0.00 0.00 84 1009.6
20260905054551 18 107 1.6 0.0 0.00 0.00 0.00 84 1009.7
20260905054039 18 79 1.6 0.0 0.00 0.00 0.00 82 1009.7
20260905053538 18 73 3.2 0.0 0.00 0.00 0.00 82 1009.7
20260905053036 19 94 4.8 0.0 0.00 0.00 0.00 81 1009.7
20260905052538 19 73 6.4 0.0 0.00 0.00 0.00 80 1009.8
20260905052035 19 80 8.0 0.0 0.00 0.00 0.00 81 1009.8
20260905051534 19 355 8.0 0.0 0.00 0.00 0.00 78 1009.9
20260905051033 19 346 8.0 0.0 0.00 0.00 0.00 79 1009.9
20260905050534 19 346 9.7 0.0 0.00 0.00 0.00 79 1010.0
20260905050033 20 342 8.0 0.0 0.00 0.00 0.00 78 1010.0
20260905045532 20 355 8.0 0.0 0.00 0.00 0.00 79 1010.0
20260905045033 20 15 8.0 0.0 0.00 0.00 0.00 79 1009.9
20260905044532 20 9 8.0 0.0 0.00 0.00 0.00 79 1010.0
20260905044031 20 360 8.0 0.0 0.00 0.00 0.00 79 1010.0
20260905043531 20 5 8.0 0.0 0.00 0.00 0.00 77 1010.1
20260905043030 19 16 6.4 0.0 0.00 0.00 0.00 79 1010.1
20260905042529 19 15 6.4 0.0 0.00 0.00 0.00 79 1010.0
20260905042029 19 39 4.8 0.0 0.00 0.00 0.00 78 1010.0
20260905041528 19 47 3.2 0.0 0.00 0.00 0.00 77 1010.0
20260905041027 20 63 3.2 0.0 0.00 0.00 0.00 77 1010.0
20260905040527 20 96 3.2 0.0 0.00 0.00 0.00 77 1010.1
20260905040032 20 70 4.8 0.0 0.00 0.00 0.00 78 1010.0
20260905035525 20 57 4.8 0.0 0.00 0.00 0.00 76 1010.0
20260905035026 20 58 4.8 0.0 0.00 0.00 0.00 75 1010.0
20260905034530 20 5 6.4 0.0 0.00 0.00 0.00 75 1010.0
20260905034026 20 36 6.4 0.0 0.00 0.00 0.00 76 1010.0
20260905033525 20 10 6.4 0.0 0.00 0.00 0.00 78 1010.0
20260905033030 20 47 6.4 0.0 0.00 0.00 0.00 76 1009.8
20260905032525 20 28 6.4 0.0 0.00 0.00 0.00 78 1009.9
20260905032025 20 30 8.0 0.0 0.00 0.00 0.00 78 1010.0
20260905031524 20 11 9.7 0.0 0.00 0.00 0.00 79 1010.1
20260905031024 20 335 8.0 0.0 0.00 0.00 0.00 77 1010.3
20260905030524 20 319 4.8 0.0 0.00 0.00 0.00 78 1010.1
20260905030024 20 333 3.2 0.0 0.00 0.00 0.00 79 1010.0
20260905025525 20 43 6.4 0.0 0.00 0.00 0.00 78 1009.9
20260905025024 20 62 8.0 0.0 0.00 0.00 0.00 79 1009.9
20260905024524 20 338 8.0 0.0 0.00 0.00 0.00 77 1010.0
20260905024024 20 335 8.0 0.0 0.00 0.00 0.00 79 1010.0
20260905023524 20 5 8.0 0.0 0.00 0.00 0.00 77 1010.0
20260905023023 20 330 6.4 0.0 0.00 0.00 0.00 77 1010.0
20260905022525 19 331 6.4 0.0 0.00 0.00 0.00 79 1010.0
20260905022023 19 321 8.0 0.0 0.00 0.00 0.00 79 1010.1
20260905021523 18 338 9.7 0.0 0.00 0.00 0.00 81 1010.1
20260905021023 18 288 6.4 0.0 0.00 0.00 0.00 81 1010.2
20260905020522 18 287 3.2 0.0 0.00 0.00 0.00 81 1010.2
20260905020026 18 299 3.2 0.0 0.00 0.00 0.00 81 1010.3
20260905015524 18 134 4.8 0.0 0.00 0.00 0.00 82 1010.3
20260905015023 18 134 3.2 0.0 0.00 0.00 0.00 81 1010.4
20260905014522 19 135 1.6 0.0 0.00 0.00 0.00 81 1010.4
20260905014022 19 134 1.6 0.0 0.00 0.00 0.00 81 1010.4
20260905013522 19 134 3.2 0.0 0.00 0.00 0.00 81 1010.3
20260905013021 20 134 4.8 0.0 0.00 0.00 0.00 80 1010.4
20260905012521 20 128 3.2 0.0 0.00 0.00 0.00 79 1010.4
20260905012021 20 113 3.2 0.0 0.00 0.00 0.00 78 1010.3
20260905011521 20 326 4.8 0.0 0.00 0.00 0.00 78 1010.2
20260905011021 20 324 6.4 0.0 0.00 0.00 0.00 77 1010.2
20260905010521 20 335 6.4 0.0 0.00 0.00 0.00 73 1010.2
20260905010022 20 332 8.0 0.0 0.00 0.00 0.00 73 1010.2
20260905005521 21 313 9.7 0.0 0.00 0.00 0.00 74 1010.2
20260905005019 21 341 9.7 0.0 0.00 0.00 0.00 72 1010.3
20260905004521 21 319 9.7 0.0 0.00 0.00 0.00 73 1010.2
20260905004020 21 328 11.3 0.0 0.00 0.00 0.00 72 1010.3
20260905003520 21 325 12.9 0.0 0.00 0.00 0.00 71 1010.2
20260905003020 21 324 14.5 0.0 0.00 0.00 0.00 71 1010.0
20260905002520 21 321 16.1 0.0 0.00 0.00 0.00 70 1009.9
20260905002020 21 312 16.1 0.0 0.00 0.00 0.00 72 1009.9
20260905001520 21 313 17.7 0.0 0.00 0.00 0.00 70 1009.9
20260905001023 21 312 17.7 0.0 0.00 0.00 0.00 72 1009.9
20260905000519 21 305 17.7 0.0 0.00 0.00 0.00 70 1009.8
20260905000019 21 302 17.7 0.0 0.00 0.00 0.00 71 1009.6
20260904235519 21 306 19.3 0.0 0.00 0.00 0.00 70 1009.6
20260904235021 22 299 17.7 0.0 0.00 0.00 0.00 70 1009.5
20260904234521 22 302 17.7 0.0 0.00 0.00 0.00 71 1009.7
20260904234019 22 303 14.5 0.0 0.00 0.00 0.00 70 1009.7
20260904233518 22 322 11.3 0.0 0.00 0.00 0.00 75 1009.5
20260904233018 22 317 11.3 0.0 0.00 0.00 0.00 73 1009.4
20260904232518 22 317 11.3 0.0 0.00 0.00 0.00 73 1009.4
20260904232017 22 327 12.9 0.0 0.00 0.00 0.00 73 1009.4
20260904231518 22 321 12.9 0.0 0.00 0.00 0.00 71 1009.4
20260904231017 22 319 14.5 0.0 0.00 0.00 0.00 70 1009.2
20260904230517 22 309 14.5 0.0 0.00 0.00 0.00 71 1009.3
20260904230029 22 317 11.3 0.0 0.00 0.00 0.00 73 1009.3
20260904225516 22 314 9.7 0.0 0.00 0.00 0.00 73 1009.3
20260904225017 22 315 9.7 0.0 0.00 0.00 0.00 72 1009.1
20260904224525 22 318 11.3 0.0 0.00 0.00 0.00 73 1009.2
20260904224017 22 325 11.3 0.0 0.00 0.00 0.00 72 1009.2
20260904223520 22 336 12.9 0.0 0.00 0.00 0.00 69 1009.2
20260904223016 22 337 12.9 0.0 0.00 0.00 0.00 69 1009.0
20260904222520 22 324 12.9 0.0 0.00 0.00 0.00 67 1008.9
20260904222016 22 324 11.3 0.0 0.00 0.00 0.00 67 1009.0
20260904221522 23 325 11.3 0.0 0.00 0.00 0.00 70 1008.9
20260904221016 23 319 11.3 0.0 0.00 0.00 0.00 69 1008.9
20260904220515 23 324 12.9 0.0 0.00 0.00 0.00 68 1008.8
20260904220015 23 310 14.5 0.0 0.00 0.00 0.00 68 1008.7
20260904215514 23 319 16.1 0.0 0.00 0.00 0.00 68 1008.8
20260904215015 23 329 14.5 0.0 0.00 0.00 0.00 64 1008.9
20260904214520 23 323 14.5 0.0 0.00 0.00 0.00 66 1008.8
20260904214015 23 305 16.1 0.0 0.00 0.00 0.00 66 1008.7
20260904213515 23 304 14.5 0.0 0.00 0.00 0.00 67 1008.6
20260904213017 23 300 14.5 0.0 0.00 0.00 0.00 68 1008.7
20260904212515 23 306 17.7 0.0 0.00 0.00 0.00 66 1008.6
20260904212014 24 291 19.3 0.0 0.00 0.00 0.00 70 1008.7
20260904211514 24 289 19.3 0.0 0.00 0.00 0.00 69 1008.6
20260904211013 24 289 22.5 0.0 0.00 0.00 0.00 67 1008.7
20260904210513 24 287 24.1 0.0 0.00 0.00 0.00 64 1008.9
20260904210012 24 285 22.5 0.0 0.00 0.00 0.00 66 1008.9
20260904205512 24 291 22.5 0.0 0.00 0.00 0.00 63 1008.9
20260904205010 24 302 25.7 0.0 0.00 0.00 0.00 61 1009.0
20260904204512 24 297 24.1 0.0 0.00 0.00 0.00 61 1009.0
20260904204011 24 286 22.5 0.0 0.00 0.00 0.00 65 1009.0
20260904203510 24 295 24.1 0.0 0.00 0.00 0.00 63 1009.1
20260904203010 24 297 25.7 0.0 0.00 0.00 0.00 62 1009.1
20260904202509 24 294 25.7 0.0 0.00 0.00 0.00 62 1009.0
20260904202008 24 302 22.5 0.0 0.00 0.00 0.00 61 1009.0
20260904201508 24 291 22.5 0.0 0.00 0.00 0.00 63 1009.0
20260904201009 24 300 20.9 0.0 0.00 0.00 0.00 63 1009.0
20260904200508 24 296 17.7 0.0 0.00 0.00 0.00 62 1008.9
20260904200010 24 319 16.1 0.0 0.00 0.00 0.00 62 1008.9
20260904195509 24 320 16.1 0.0 0.00 0.00 0.00 61 1009.0
20260904195008 25 312 14.5 0.0 0.00 0.00 0.00 62 1009.0
20260904194508 25 340 14.5 0.0 0.00 0.00 0.00 62 1009.0
20260904194008 24 324 17.7 0.0 0.00 0.00 0.00 61 1009.0
20260904193508 24 330 17.7 0.0 0.00 0.00 0.00 61 1008.9
20260904193014 24 334 17.7 0.0 0.00 0.00 0.00 63 1008.9
20260904192506 24 320 19.3 0.0 0.00 0.00 0.00 63 1008.9
20260904192005 24 314 19.3 0.0 0.00 0.00 0.00 62 1008.9
20260904191505 24 306 19.3 0.0 0.00 0.00 0.00 57 1009.2
20260904191004 24 299 16.1 0.0 0.00 0.00 0.00 63 1009.2
20260904190503 24 303 14.5 0.0 0.00 0.00 0.00 64 1009.2
20260904190002 24 312 16.1 0.0 0.00 0.00 0.00 63 1009.2